BAW205 EGLL-EDDL

Flight info

Callsign BAW205
Flight time 0h 52m
Altitude 33000
Route BPK Q295 BRAIN M197 REDFA DCT TACHA DCT PAM P62 PISAP PISAP1A
Aircraft A359/H-SDE2E3GHIJ3J4J5LM1ORWXY/LB1D1

Departure

Time 2026-05-07 16:22
Airport London Heathrow Airport (EGLL)

Arrival

Time 2026-05-07 17:14
Airport Düsseldorf Airport (EDDL)
Time Latitude Longitude Altitude Speed Heading
2026-05-07 15:52 51.46901 -0.46423 94 ft 0 kts 56°
2026-05-07 15:53 51.46905 -0.46412 94 ft 0 kts 56°
2026-05-07 16:12 51.46898 -0.46429 91 ft 4 kts 56°
2026-05-07 16:12 51.46882 -0.46465 92 ft 4 kts 56°
2026-05-07 16:12 51.46871 -0.46500 90 ft 4 kts 88°
2026-05-07 16:13 51.46878 -0.46535 90 ft 4 kts 139°
2026-05-07 16:13 51.46895 -0.46555 90 ft 4 kts 146°
2026-05-07 16:13 51.46917 -0.46579 93 ft 2 kts 146°
2026-05-07 16:13 51.46919 -0.46582 93 ft 0 kts 146°
2026-05-07 16:16 51.46913 -0.46575 92 ft 4 kts 146°
2026-05-07 16:16 51.46875 -0.46535 90 ft 9 kts 147°
2026-05-07 16:16 51.46804 -0.46458 96 ft 16 kts 147°
2026-05-07 16:16 51.46684 -0.46448 96 ft 18 kts 218°
2026-05-07 16:17 51.46661 -0.46633 96 ft 20 kts 269°
2026-05-07 16:17 51.46666 -0.46896 95 ft 26 kts 268°
2026-05-07 16:17 51.46658 -0.47211 92 ft 31 kts 270°
2026-05-07 16:17 51.46657 -0.47584 91 ft 35 kts 270°
2026-05-07 16:18 51.46654 -0.47944 92 ft 27 kts 269°
2026-05-07 16:18 51.46655 -0.48092 94 ft 0 kts 269°
2026-05-07 16:18 51.46655 -0.48148 95 ft 23 kts 270°
2026-05-07 16:19 51.46653 -0.48511 95 ft 36 kts 270°
2026-05-07 16:19 51.46631 -0.48741 96 ft 9 kts 220°
2026-05-07 16:19 51.46604 -0.48762 95 ft 0 kts 202°
2026-05-07 16:20 51.46603 -0.48762 94 ft 2 kts 202°
2026-05-07 16:20 51.46528 -0.48769 93 ft 19 kts 165°
2026-05-07 16:20 51.46478 -0.48671 96 ft 0 kts 87°
2026-05-07 16:21 51.46478 -0.48667 97 ft 0 kts 89°
2026-05-07 16:21 51.46478 -0.48664 97 ft 0 kts 89°
2026-05-07 16:21 51.46479 -0.48461 93 ft 61 kts 90°
2026-05-07 16:22 51.46485 -0.47264 94 ft 150 kts 90°
2026-05-07 16:22 51.46484 -0.45306 469 ft 192 kts 91°
2026-05-07 16:22 51.46482 -0.43092 1403 ft 206 kts 90°
2026-05-07 16:22 51.46778 -0.40873 2394 ft 203 kts 67°
2026-05-07 16:23 51.47504 -0.38955 3291 ft 200 kts 58°
2026-05-07 16:23 51.48212 -0.37038 4198 ft 198 kts 59°
2026-05-07 16:23 51.48953 -0.35165 4973 ft 205 kts 58°
2026-05-07 16:23 51.49835 -0.33196 5355 ft 229 kts 45°
2026-05-07 16:24 51.51128 -0.31531 5816 ft 247 kts 39°
2026-05-07 16:24 51.52204 -0.29288 5994 ft 268 kts 63°
2026-05-07 16:24 51.52960 -0.26514 6038 ft 272 kts 69°
2026-05-07 16:24 51.53667 -0.23652 6047 ft 272 kts 65°
2026-05-07 16:25 51.54770 -0.21225 6047 ft 273 kts 41°
2026-05-07 16:25 51.56397 -0.19672 6043 ft 273 kts 25°
2026-05-07 16:25 51.58134 -0.18472 6066 ft 273 kts 22°
2026-05-07 16:25 51.59848 -0.17117 6167 ft 276 kts 34°
2026-05-07 16:26 51.61299 -0.15053 6770 ft 278 kts 46°
2026-05-07 16:26 51.62571 -0.12757 7736 ft 279 kts 51°
2026-05-07 16:26 51.63794 -0.10265 8752 ft 283 kts 53°
2026-05-07 16:26 51.64963 -0.07730 9694 ft 288 kts 54°
2026-05-07 16:27 51.66151 -0.05093 10519 ft 296 kts 55°
2026-05-07 16:27 51.67383 -0.02359 11260 ft 305 kts 55°
2026-05-07 16:27 51.68650 0.00430 12004 ft 314 kts 55°
2026-05-07 16:27 51.69979 0.03360 12457 ft 333 kts 55°
2026-05-07 16:28 51.71388 0.06453 12882 ft 350 kts 54°
2026-05-07 16:28 51.72856 0.09650 13513 ft 358 kts 54°
2026-05-07 16:28 51.74359 0.12906 14181 ft 364 kts 54°
2026-05-07 16:28 51.75859 0.16170 14800 ft 370 kts 56°
2026-05-07 16:29 51.77107 0.19815 15434 ft 374 kts 69°
2026-05-07 16:29 51.77837 0.23860 16086 ft 378 kts 78°
2026-05-07 16:29 51.78338 0.28055 16739 ft 382 kts 82°
2026-05-07 16:29 51.78711 0.32334 17376 ft 387 kts 84°
2026-05-07 16:30 51.79018 0.36645 18022 ft 392 kts 85°
2026-05-07 16:30 51.79313 0.41062 18611 ft 397 kts 85°
2026-05-07 16:30 51.79618 0.45531 19169 ft 401 kts 84°
2026-05-07 16:30 51.79942 0.50039 19771 ft 405 kts 84°
2026-05-07 16:31 51.80283 0.54576 20340 ft 409 kts 84°
2026-05-07 16:31 51.80633 0.59114 20961 ft 411 kts 83°
2026-05-07 16:31 51.81020 0.63724 21562 ft 414 kts 81°
2026-05-07 16:31 51.81609 0.68312 22189 ft 417 kts 78°
2026-05-07 16:32 51.82268 0.72894 22737 ft 421 kts 77°
2026-05-07 16:32 51.82971 0.77516 23307 ft 425 kts 76°
2026-05-07 16:32 51.83700 0.82194 23817 ft 429 kts 76°
2026-05-07 16:32 51.84476 0.86819 24275 ft 432 kts 74°
2026-05-07 16:33 51.85336 0.91507 24785 ft 435 kts 73°
2026-05-07 16:33 51.86227 0.96199 25305 ft 438 kts 73°
2026-05-07 16:33 51.87128 1.00945 25862 ft 441 kts 73°
2026-05-07 16:33 51.88023 1.05724 26449 ft 445 kts 73°
2026-05-07 16:34 51.88901 1.10487 27031 ft 448 kts 74°
2026-05-07 16:34 51.89787 1.15353 27666 ft 451 kts 74°
2026-05-07 16:34 51.90670 1.20256 28327 ft 455 kts 74°
2026-05-07 16:34 51.91557 1.25212 28984 ft 459 kts 74°
2026-05-07 16:35 51.92440 1.30162 29636 ft 463 kts 74°
2026-05-07 16:35 51.93335 1.35195 30280 ft 467 kts 75°
2026-05-07 16:35 51.94239 1.40291 30808 ft 471 kts 75°
2026-05-07 16:35 51.95144 1.45402 31359 ft 475 kts 75°
2026-05-07 16:36 51.96064 1.50610 31906 ft 479 kts 75°
2026-05-07 16:36 51.96981 1.55820 32448 ft 482 kts 75°
2026-05-07 16:36 51.97904 1.61069 32908 ft 487 kts 75°
2026-05-07 16:36 51.98832 1.66368 33079 ft 488 kts 75°
2026-05-07 16:37 51.99743 1.71599 33086 ft 487 kts 75°
2026-05-07 16:37 52.01429 1.82252 33083 ft 488 kts 77°
2026-05-07 16:38 52.03036 1.92972 33090 ft 488 kts 77°
2026-05-07 16:38 52.04648 2.03638 33088 ft 484 kts 77°
2026-05-07 16:39 52.06258 2.14202 33082 ft 484 kts 77°
2026-05-07 16:39 52.07878 2.24855 33091 ft 484 kts 77°
2026-05-07 16:40 52.09473 2.35417 33088 ft 484 kts 77°
2026-05-07 16:40 52.11072 2.46082 33085 ft 484 kts 77°
2026-05-07 16:41 52.12778 2.56639 33087 ft 485 kts 73°
2026-05-07 16:41 52.14842 2.67120 33090 ft 486 kts 72°
2026-05-07 16:42 52.16926 2.77602 33094 ft 486 kts 73°
2026-05-07 16:42 52.18942 2.88127 33090 ft 486 kts 73°
2026-05-07 16:43 52.20904 2.98608 33087 ft 486 kts 73°
2026-05-07 16:43 52.22871 3.09205 33089 ft 488 kts 73°
2026-05-07 16:44 52.24696 3.19084 33095 ft 487 kts 74°
2026-05-07 16:44 52.25898 3.29836 33093 ft 480 kts 84°
2026-05-07 16:45 52.26502 3.40693 33090 ft 479 kts 86°
2026-05-07 16:45 52.27000 3.51530 33092 ft 480 kts 86°
2026-05-07 16:46 52.27495 3.62449 33091 ft 482 kts 86°
2026-05-07 16:46 52.27992 3.73313 33091 ft 482 kts 87°
2026-05-07 16:47 52.28492 3.84249 33089 ft 482 kts 86°
2026-05-07 16:47 52.28981 3.95132 33089 ft 482 kts 86°
2026-05-07 16:48 52.29462 4.06068 33089 ft 483 kts 86°
2026-05-07 16:48 52.29856 4.15202 33089 ft 484 kts 86°
2026-05-07 16:49 52.30319 4.26166 33083 ft 484 kts 87°
2026-05-07 16:49 52.30769 4.37096 33075 ft 484 kts 87°
2026-05-07 16:50 52.31211 4.48081 33078 ft 484 kts 87°
2026-05-07 16:50 52.31642 4.59061 33069 ft 484 kts 87°
2026-05-07 16:51 52.32064 4.70062 33075 ft 484 kts 87°
2026-05-07 16:51 52.32473 4.80965 33075 ft 483 kts 87°
2026-05-07 16:52 52.32874 4.91963 33013 ft 483 kts 87°
2026-05-07 16:52 52.33072 4.97482 32762 ft 491 kts 87°
2026-05-07 16:52 52.33218 5.03092 32496 ft 496 kts 91°
2026-05-07 16:52 52.32913 5.08699 32226 ft 495 kts 101°
2026-05-07 16:53 52.31991 5.14148 31968 ft 494 kts 112°
2026-05-07 16:53 52.30687 5.19325 31705 ft 494 kts 115°
2026-05-07 16:53 52.29277 5.24394 31459 ft 495 kts 116°
2026-05-07 16:53 52.27790 5.29495 31198 ft 495 kts 117°
2026-05-07 16:54 52.26283 5.34574 30951 ft 496 kts 117°
2026-05-07 16:54 52.24776 5.39656 30695 ft 497 kts 117°
2026-05-07 16:54 52.23275 5.44744 30439 ft 498 kts 117°
2026-05-07 16:54 52.21780 5.49841 30193 ft 499 kts 117°
2026-05-07 16:55 52.20296 5.54922 29901 ft 500 kts 116°
2026-05-07 16:55 52.18798 5.60061 29600 ft 499 kts 116°
2026-05-07 16:55 52.17332 5.65086 28868 ft 491 kts 116°
2026-05-07 16:55 52.15871 5.70090 28155 ft 483 kts 116°
2026-05-07 16:56 52.14429 5.75015 27465 ft 475 kts 116°
2026-05-07 16:56 52.13015 5.79841 26784 ft 468 kts 117°
2026-05-07 16:56 52.10255 5.89240 25408 ft 456 kts 117°
2026-05-07 16:57 52.08878 5.93901 24733 ft 451 kts 117°
2026-05-07 16:57 52.07535 5.98441 24068 ft 447 kts 117°
2026-05-07 16:57 52.06187 6.02991 23338 ft 442 kts 117°
2026-05-07 16:57 52.04874 6.07414 22635 ft 435 kts 117°
2026-05-07 16:58 52.03560 6.11831 21964 ft 429 kts 117°
2026-05-07 16:58 52.02276 6.16143 21303 ft 423 kts 116°
2026-05-07 16:58 52.00995 6.20452 20660 ft 420 kts 116°
2026-05-07 16:58 51.99676 6.24705 20202 ft 429 kts 121°
2026-05-07 16:59 51.97857 6.28608 20053 ft 435 kts 135°
2026-05-07 16:59 51.95649 6.31885 19970 ft 431 kts 142°
2026-05-07 16:59 51.93204 6.34606 19268 ft 421 kts 151°
2026-05-07 16:59 51.90569 6.36797 18104 ft 425 kts 155°
2026-05-07 17:00 51.87930 6.38767 16853 ft 414 kts 156°
2026-05-07 17:00 51.85328 6.40658 15064 ft 405 kts 157°
2026-05-07 17:00 51.82707 6.42536 13751 ft 414 kts 157°
2026-05-07 17:00 51.80152 6.44359 13301 ft 380 kts 157°
2026-05-07 17:01 51.77827 6.46017 12265 ft 360 kts 157°
2026-05-07 17:01 51.75516 6.47656 11060 ft 366 kts 157°
2026-05-07 17:01 51.73217 6.49284 9983 ft 355 kts 157°
2026-05-07 17:01 51.71009 6.50849 8958 ft 338 kts 157°
2026-05-07 17:02 51.68911 6.52332 8345 ft 320 kts 157°
2026-05-07 17:02 51.66934 6.53727 8083 ft 305 kts 157°
2026-05-07 17:02 51.65033 6.55064 8033 ft 286 kts 157°
2026-05-07 17:02 51.63217 6.56330 8046 ft 283 kts 158°
2026-05-07 17:03 51.61426 6.57574 8037 ft 283 kts 158°
2026-05-07 17:03 51.59612 6.58839 7935 ft 283 kts 158°
2026-05-07 17:03 51.57857 6.60067 7325 ft 273 kts 157°
2026-05-07 17:03 51.56099 6.61300 6398 ft 276 kts 156°
2026-05-07 17:04 51.54331 6.62540 5638 ft 274 kts 156°
2026-05-07 17:04 51.52601 6.63744 5154 ft 272 kts 157°
2026-05-07 17:04 51.50858 6.64965 4997 ft 272 kts 154°
2026-05-07 17:04 51.49157 6.66207 4980 ft 270 kts 154°
2026-05-07 17:05 51.47504 6.67397 4983 ft 248 kts 155°
2026-05-07 17:05 51.45948 6.68498 4985 ft 241 kts 155°
2026-05-07 17:05 51.44420 6.69571 4988 ft 239 kts 155°
2026-05-07 17:05 51.42910 6.70629 4992 ft 239 kts 155°
2026-05-07 17:06 51.41381 6.71697 4993 ft 239 kts 155°
2026-05-07 17:06 51.39814 6.72532 4994 ft 242 kts 169°
2026-05-07 17:06 51.38128 6.72467 4939 ft 242 kts 194°
2026-05-07 17:06 51.36652 6.71249 4797 ft 239 kts 223°
2026-05-07 17:07 51.35556 6.69298 4678 ft 238 kts 232°
2026-05-07 17:07 51.34526 6.67192 4571 ft 238 kts 232°
2026-05-07 17:07 51.33524 6.65119 4426 ft 238 kts 232°
2026-05-07 17:07 51.32509 6.63017 4180 ft 237 kts 233°
2026-05-07 17:08 51.31499 6.60933 3937 ft 236 kts 232°
2026-05-07 17:08 51.30501 6.58870 3684 ft 236 kts 233°
2026-05-07 17:08 51.29492 6.56798 3577 ft 236 kts 233°
2026-05-07 17:08 51.28495 6.54741 3480 ft 235 kts 233°
2026-05-07 17:09 51.27468 6.52702 3354 ft 235 kts 227°
2026-05-07 17:09 51.26118 6.51318 3224 ft 235 kts 198°
2026-05-07 17:09 51.24518 6.50724 3099 ft 235 kts 192°
2026-05-07 17:09 51.22906 6.50314 2958 ft 230 kts 179°
2026-05-07 17:10 51.21456 6.50993 2886 ft 215 kts 147°
2026-05-07 17:10 51.20284 6.52425 2896 ft 210 kts 137°
2026-05-07 17:10 51.19470 6.54317 2888 ft 208 kts 107°
2026-05-07 17:10 51.19454 6.56569 2900 ft 205 kts 77°
2026-05-07 17:11 51.19944 6.58697 2822 ft 205 kts 57°
2026-05-07 17:11 51.20840 6.60449 2540 ft 203 kts 47°
2026-05-07 17:11 51.21765 6.62130 2239 ft 203 kts 49°
2026-05-07 17:11 51.22603 6.63914 1965 ft 199 kts 54°
2026-05-07 17:12 51.23422 6.65697 1697 ft 199 kts 51°
2026-05-07 17:12 51.24252 6.67399 1417 ft 191 kts 52°
2026-05-07 17:12 51.25030 6.69048 1160 ft 178 kts 53°
2026-05-07 17:12 51.25736 6.70528 912 ft 160 kts 52°
2026-05-07 17:13 51.26385 6.71879 695 ft 147 kts 52°
2026-05-07 17:13 51.26986 6.73143 476 ft 136 kts 53°
2026-05-07 17:13 51.27533 6.74321 330 ft 135 kts 54°
2026-05-07 17:13 51.28117 6.75531 206 ft 134 kts 52°
2026-05-07 17:14 51.28659 6.76648 138 ft 119 kts 55°
2026-05-07 17:14 51.29081 6.77581 136 ft 86 kts 59°
2026-05-07 17:14 51.29385 6.78194 149 ft 50 kts 53°
2026-05-07 17:14 51.29478 6.78441 155 ft 12 kts 101°
2026-05-07 17:15 51.29421 6.78536 157 ft 13 kts 161°
2026-05-07 17:15 51.29321 6.78528 156 ft 16 kts 223°
2026-05-07 17:15 51.29243 6.78312 147 ft 28 kts 245°
2026-05-07 17:15 51.29103 6.78045 137 ft 35 kts 233°
2026-05-07 17:16 51.28942 6.77735 136 ft 39 kts 218°
2026-05-07 17:16 51.28810 6.77470 136 ft 32 kts 232°
2026-05-07 17:16 51.28678 6.77167 135 ft 36 kts 234°
2026-05-07 17:16 51.28517 6.76834 129 ft 40 kts 230°
2026-05-07 17:17 51.28342 6.76463 122 ft 43 kts 232°
2026-05-07 17:17 51.28172 6.76111 135 ft 33 kts 232°
2026-05-07 17:17 51.28043 6.75848 135 ft 25 kts 217°
2026-05-07 17:17 51.27860 6.75813 135 ft 30 kts 182°
2026-05-07 17:18 51.27656 6.75814 136 ft 25 kts 169°
2026-05-07 17:18 51.27513 6.75908 136 ft 21 kts 156°
2026-05-07 17:18 51.27479 6.75990 136 ft 4 kts 57°
2026-05-07 17:18 51.27506 6.76068 136 ft 19 kts 47°
2026-05-07 17:19 51.27564 6.76132 137 ft 11 kts 39°
2026-05-07 17:19 51.27598 6.76182 136 ft 5 kts 44°
2026-05-07 17:19 51.27603 6.76190 135 ft 0 kts 44°